Location: Unspecified
(0.0000°N, 0.0000°E)
Time: 10:32:12
(UTC+00:00)

Amsat-Oscar-8 - Pass Details

Date: 12 June 2023
Orbit: 890 x 901 km, 99.2° (Epoch: 21 September)

Event Time Altitude Azimuth Distance (km) Brightness Sun altitude
Rises 03:02:30 0° 16° (NNE) 3,497 12.4 -40.0°
Reaches altitude 10° 03:04:54 10° 17° (NNE) 2,561 11.6 -39.5°
Enters shadow 03:07:00 24° 19° (NNE) 1,771 10.7 -39.0°
